Weather History for Socorro, NM

Change the Weather History Date:

Monday, October 3, 2011

  Actual Average Record
Temperature  
Mean Temperature 66 °F -  
Max Temperature 80 °F 80 °F 91 °F (2012)
Min Temperature 53 °F 46 °F 48 °F (2013)
Cooling Degree Days 2    
Growing Degree Days 16 (Base 50)    
Moisture  
Dew Point 49 °F    
Average Humidity 62    
Maximum Humidity 94    
Minimum Humidity 28    
Precipitation  
Precipitation 0.00 in - - ()
Sea Level Pressure  
Sea Level Pressure 30.22 in    
Wind  
Wind Speed 5 mph (NW)    
Max Wind Speed 21 mph    
Max Gust Speed 26 mph    
Visibility 10 miles    
Events Thunderstorm    
Averages and records for this station are not official NWS values.
T = Trace of Precipitation, MM = Missing Value Source: NWS Daily Summary

Daily Weather History Graph

Daily Weather History Graph

Search for Another Location

Airport:

Trip Planner

Search our weather history database for the weather conditions in past years. The results will help you decide how hot, cold, wet, or windy it might be!

Date:

Astronomy

Oct. 03, 2011 Rise Set
Actual Time 7:03 AM MDT 6:49 PM MDT
Civil Twilight 6:38 AM MDT 7:14 PM MDT
Nautical Twilight 6:09 AM MDT 7:43 PM MDT
Astronomical Twilight 5:40 AM MDT 8:12 PM MDT
Moon 1:49 PM MDT (10/3) No Moon Set
Length of Visible Light 12h 35m
Length of Day
11h 46m
Waxing Crescent, 46% of the Moon is Illuminated
Oct 3
Waxing Crescent
Oct 3
First Quarter
Oct 11
Full
Oct 19
Last Quarter
Oct 26
New

Hourly Weather History & Observations

Time (MDT) Temp. Dew Point Humidity Pressure Visibility Wind Dir Wind Speed Gust Speed Precip Events Conditions
12:15 AM 60.8 °F 53.6 °F 77% 30.24 in 10.0 mi SSW 4.6 mph - N/A   Overcast
12:35 AM 60.8 °F 51.8 °F 72% 30.24 in 10.0 mi Calm Calm - N/A   Overcast
12:55 AM 60.8 °F 51.8 °F 72% 30.23 in 10.0 mi SE 5.8 mph - N/A   Mostly Cloudy
1:15 AM 59.0 °F 51.8 °F 77% 30.24 in 10.0 mi Calm Calm - N/A   Mostly Cloudy
1:55 AM 57.2 °F 51.8 °F 82% 30.25 in 10.0 mi ESE 6.9 mph - N/A   Clear
2:15 AM 55.4 °F 51.8 °F 88% 30.24 in 10.0 mi Calm Calm - N/A   Clear
2:55 AM 57.2 °F 51.8 °F 82% 30.24 in 10.0 mi Calm Calm - N/A   Clear
3:15 AM 55.4 °F 51.8 °F 88% 30.23 in 10.0 mi South 3.5 mph - N/A   Clear
3:35 AM 55.4 °F 51.8 °F 88% 30.23 in 10.0 mi Calm Calm - N/A   Clear
3:55 AM 55.4 °F 51.8 °F 88% 30.22 in 10.0 mi NW 5.8 mph - N/A   Clear
4:15 AM 53.6 °F 51.8 °F 94% 30.21 in 10.0 mi NW 4.6 mph - N/A   Clear
4:35 AM 53.6 °F 50.0 °F 88% 30.21 in 10.0 mi North 4.6 mph - N/A   Clear
4:55 AM 55.4 °F 51.8 °F 88% 30.22 in 10.0 mi NE 3.5 mph - N/A   Clear
5:15 AM 53.6 °F 50.0 °F 88% 30.23 in 10.0 mi NNE 3.5 mph - N/A   Clear
5:35 AM 53.6 °F 50.0 °F 88% 30.24 in 10.0 mi West 4.6 mph - N/A   Clear
5:55 AM 53.6 °F 50.0 °F 88% 30.24 in 10.0 mi NNW 4.6 mph - N/A   Clear
6:15 AM 53.6 °F 50.0 °F 88% 30.24 in 10.0 mi North 4.6 mph - N/A   Clear
6:35 AM 53.6 °F 50.0 °F 88% 30.25 in 10.0 mi NW 4.6 mph - N/A   Clear
6:55 AM 53.6 °F 50.0 °F 88% 30.25 in 10.0 mi NNW 3.5 mph - N/A   Clear
7:15 AM 53.6 °F 48.2 °F 82% 30.26 in 10.0 mi North 6.9 mph - N/A   Clear
7:35 AM 53.6 °F 48.2 °F 82% 30.26 in 10.0 mi NNW 4.6 mph - N/A   Clear
7:55 AM 53.6 °F 48.2 °F 82% 30.26 in 10.0 mi NW 3.5 mph - N/A   Clear
8:15 AM 55.4 °F 50.0 °F 82% 30.27 in 10.0 mi NW 5.8 mph - N/A   Clear
8:35 AM 55.4 °F 48.2 °F 77% 30.28 in 10.0 mi NNW 6.9 mph - N/A   Clear
8:55 AM 57.2 °F 48.2 °F 72% 30.28 in 10.0 mi NNW 5.8 mph - N/A   Clear
9:15 AM 57.2 °F 50.0 °F 77% 30.28 in 10.0 mi North 4.6 mph - N/A   Scattered Clouds
9:55 AM 59.0 °F 50.0 °F 72% 30.29 in 10.0 mi North 3.5 mph - N/A   Mostly Cloudy
10:15 AM 60.8 °F 50.0 °F 68% 30.29 in 10.0 mi North 4.6 mph - N/A   Mostly Cloudy
10:35 AM 60.8 °F 50.0 °F 68% 30.29 in 10.0 mi North 5.8 mph - N/A   Scattered Clouds
10:55 AM 62.6 °F 50.0 °F 63% 30.29 in 10.0 mi Calm Calm - N/A   Scattered Clouds
11:15 AM 62.6 °F 50.0 °F 63% 30.29 in 10.0 mi North 3.5 mph - N/A   Mostly Cloudy
11:35 AM 64.4 °F 50.0 °F 59% 30.28 in 10.0 mi NNE 3.5 mph - N/A   Mostly Cloudy
11:55 AM 68.0 °F 50.0 °F 52% 30.27 in 10.0 mi Calm Calm - N/A   Scattered Clouds
12:15 PM 68.0 °F 50.0 °F 52% 30.27 in 10.0 mi NNE 3.5 mph - N/A   Mostly Cloudy
12:35 PM 69.8 °F 50.0 °F 49% 30.25 in 10.0 mi Calm Calm - N/A   Scattered Clouds
12:55 PM 69.8 °F 50.0 °F 49% 30.24 in 10.0 mi NE 3.5 mph - N/A   Clear
1:15 PM 71.6 °F 48.2 °F 43% 30.23 in 10.0 mi ESE 3.5 mph - N/A   Scattered Clouds
1:35 PM 73.4 °F 48.2 °F 41% 30.21 in 10.0 mi ESE 6.9 mph - N/A Thunderstorm Scattered Clouds
2:15 PM 77.0 °F 46.4 °F 34% 30.19 in 10.0 mi East 4.6 mph - N/A   Clear
2:35 PM 77.0 °F 46.4 °F 34% 30.18 in 10.0 mi Calm Calm - N/A   Scattered Clouds
2:55 PM 78.8 °F 44.6 °F 30% 30.17 in 10.0 mi South 10.4 mph 18.4 mph N/A Thunderstorm Clear
3:15 PM 80.6 °F 44.6 °F 28% 30.16 in 10.0 mi South 9.2 mph - N/A   Clear
3:35 PM 80.6 °F 44.6 °F 28% 30.16 in 10.0 mi SSW 16.1 mph - N/A   Clear
3:55 PM 80.6 °F 46.4 °F 30% 30.15 in 10.0 mi South 8.1 mph 16.1 mph N/A   Clear
4:15 PM 78.8 °F 44.6 °F 30% 30.15 in 10.0 mi South 8.1 mph - N/A   Clear
4:35 PM 78.8 °F 44.6 °F 30% 30.14 in 10.0 mi South 10.4 mph - N/A   Clear
4:55 PM 77.0 °F 44.6 °F 32% 30.14 in 10.0 mi South 11.5 mph 17.3 mph N/A   Clear
5:15 PM 77.0 °F 44.6 °F 32% 30.15 in 10.0 mi South 12.7 mph - N/A   Clear
5:35 PM 77.0 °F 44.6 °F 32% 30.15 in 10.0 mi SSE 12.7 mph 16.1 mph N/A   Scattered Clouds
5:55 PM 73.4 °F 44.6 °F 36% 30.15 in 10.0 mi SSE 20.7 mph 26.5 mph N/A   Mostly Cloudy
6:35 PM 71.6 °F 44.6 °F 38% 30.14 in 10.0 mi SSE 6.9 mph - N/A   Mostly Cloudy
6:55 PM 71.6 °F 44.6 °F 38% 30.14 in 10.0 mi South 8.1 mph - N/A   Scattered Clouds
7:35 PM 69.8 °F 46.4 °F 43% 30.16 in 10.0 mi SSW 10.4 mph - N/A   Scattered Clouds
7:55 PM 69.8 °F 44.6 °F 40% 30.16 in 10.0 mi SSW 9.2 mph - N/A   Scattered Clouds
8:15 PM 69.8 °F 44.6 °F 40% 30.17 in 10.0 mi South 5.8 mph - N/A   Scattered Clouds
8:35 PM 68.0 °F 48.2 °F 49% 30.17 in 10.0 mi SSE 6.9 mph - N/A   Scattered Clouds
8:55 PM 66.2 °F 50.0 °F 56% 30.18 in 10.0 mi Calm Calm - N/A   Scattered Clouds
9:15 PM 64.4 °F 50.0 °F 59% 30.18 in 10.0 mi SSE 4.6 mph - N/A   Scattered Clouds
9:35 PM 64.4 °F 50.0 °F 59% 30.17 in 10.0 mi SSE 3.5 mph - N/A   Scattered Clouds
9:55 PM 64.4 °F 50.0 °F 59% 30.17 in 10.0 mi SSE 3.5 mph - N/A   Scattered Clouds
10:15 PM 64.4 °F 50.0 °F 59% 30.17 in 10.0 mi SSE 5.8 mph - N/A   Clear
10:35 PM 64.4 °F 50.0 °F 59% 30.18 in 10.0 mi South 4.6 mph - N/A   Scattered Clouds
10:55 PM 64.4 °F 50.0 °F 59% 30.17 in 10.0 mi South 4.6 mph - N/A   Mostly Cloudy
11:15 PM 64.4 °F 50.0 °F 59% 30.17 in 10.0 mi SSW 3.5 mph - N/A   Overcast
11:35 PM 64.4 °F 50.0 °F 59% 30.17 in 10.0 mi SSW 4.6 mph - N/A   Mostly Cloudy
11:55 PM 64.4 °F 50.0 °F 59% 30.17 in 10.0 mi SSW 6.9 mph - N/A   Scattered Clouds